Weather History for Morristown, NJ

Change the Weather History Date:

Friday, November 22, 2013

  Actual Average Record
Temperature  
Mean Temperature 50 °F -  
Max Temperature 55 °F 49 °F 104 °F (1997)
Min Temperature 44 °F 29 °F 12 °F (1969)
Degree Days  
Heating Degree Days 16    
Moisture  
Dew Point 44 °F    
Average Humidity 80    
Maximum Humidity 94    
Minimum Humidity 71    
Precipitation  
Precipitation 0.00 in - - ()
Sea Level Pressure  
Sea Level Pressure 30.15 in    
Wind  
Wind Speed 2 mph (WSW)    
Max Wind Speed 10 mph    
Max Gust Speed 16 mph    
Visibility 10 miles    
Events Rain    
Averages and records for this station are not official NWS values.
T = Trace of Precipitation, MM = Missing Value Source: NWS Daily Summary

Daily Weather History Graph

Daily Weather History Graph

Search for Another Location

Airport:

Trip Planner

Search our weather history database for the weather conditions in past years. The results will help you decide how hot, cold, wet, or windy it might be!

Date:

Astronomy

Nov. 22, 2013 Rise Set
Actual Time 6:53 AM EST 4:34 PM EST
Civil Twilight 6:23 AM EST 5:04 PM EST
Nautical Twilight 5:49 AM EST 5:37 PM EST
Astronomical Twilight 5:16 AM EST 6:10 PM EST
Moon 9:04 PM EST (11/22) 10:34 AM EST (11/22)
Length of Visible Light 10h 41m
Length of Day
9h 41m
Waning Gibbous, 78% of the Moon is Illuminated
Nov 22
Waning Gibbous
Nov 25
Last Quarter
Dec 2
New
Dec 9
First Quarter
Dec 17
Full

Hourly Weather History & Observations

Time (EST) Temp. Dew Point Humidity Pressure Visibility Wind Dir Wind Speed Gust Speed Precip Events Conditions
12:15 AM 46.4 °F 39.2 °F 76% 30.39 in 10.0 mi Calm Calm - N/A   Overcast
12:35 AM 46.4 °F 39.2 °F 76% 30.38 in 10.0 mi Calm Calm - N/A   Overcast
12:55 AM 46.4 °F 39.2 °F 76% 30.38 in 10.0 mi Calm Calm - N/A   Overcast
1:15 AM 46.4 °F 39.2 °F 76% 30.37 in 10.0 mi Calm Calm - N/A   Overcast
1:35 AM 46.4 °F 39.2 °F 76% 30.36 in 10.0 mi Calm Calm - N/A   Overcast
1:55 AM 46.4 °F 39.2 °F 76% 30.34 in 10.0 mi Calm Calm - N/A   Overcast
2:15 AM 46.4 °F 39.2 °F 76% 30.34 in 10.0 mi Calm Calm - N/A   Overcast
2:35 AM 46.4 °F 39.2 °F 76% 30.32 in 10.0 mi Calm Calm - N/A   Overcast
2:55 AM 46.4 °F 39.2 °F 76% 30.29 in 10.0 mi Calm Calm - N/A   Overcast
3:15 AM 46.4 °F 39.2 °F 76% 30.31 in 10.0 mi Calm Calm - N/A   Overcast
3:35 AM 48.2 °F 41.0 °F 76% 30.30 in 10.0 mi Calm Calm - N/A   Overcast
3:55 AM 48.2 °F 39.2 °F 71% 30.29 in 10.0 mi Calm Calm - N/A   Overcast
4:15 AM 48.2 °F 39.2 °F 71% 30.28 in 10.0 mi Calm Calm - N/A   Overcast
4:35 AM 48.2 °F 39.2 °F 71% 30.27 in 10.0 mi Calm Calm - N/A   Overcast
4:55 AM 48.2 °F 41.0 °F 76% 30.26 in 10.0 mi Calm Calm - N/A Rain Rain
5:15 AM 46.4 °F 42.8 °F 87% 30.26 in 10.0 mi Calm Calm - N/A   Light Drizzle
5:35 AM 46.4 °F 42.8 °F 87% 30.25 in 10.0 mi Calm Calm - N/A Rain Light Rain
6:45 AM 44.6 °F 42.8 °F 93% 30.23 in 7.0 mi Calm Calm - N/A   Overcast
7:45 AM 44.6 °F 42.8 °F 93% 30.21 in 5.0 mi Calm Calm - N/A Rain Light Rain
8:45 AM 48.2 °F 44.6 °F 87% 30.19 in 5.0 mi SW 8.1 mph - N/A   Overcast
9:45 AM 48.2 °F 46.4 °F 93% 30.17 in 4.0 mi WSW 6.9 mph - N/A Rain Light Rain
10:45 AM 50.0 °F 48.2 °F 94% 30.14 in 5.0 mi SW 8.1 mph - N/A   Overcast
12:45 PM 55.4 °F 48.2 °F 77% 30.07 in 8.0 mi West 6.9 mph 16.1 mph N/A   Mostly Cloudy
1:45 PM 55.4 °F 46.4 °F 72% 30.05 in 15.0 mi West 10.4 mph - N/A   Mostly Cloudy
2:45 PM 55.4 °F 46.4 °F 72% 30.03 in 10.0 mi West 5.8 mph - N/A   Mostly Cloudy
3:45 PM 55.4 °F 46.4 °F 72% 30.02 in 10.0 mi WSW 6.9 mph - N/A   Scattered Clouds
4:45 PM 55.4 °F 46.4 °F 72% 30.01 in 10.0 mi WSW 8.1 mph - N/A   Mostly Cloudy
5:45 PM 53.6 °F 46.4 °F 77% 29.99 in 10.0 mi WSW 5.8 mph - N/A   Overcast
6:45 PM 53.6 °F 46.4 °F 77% 29.98 in 10.0 mi West 4.6 mph - N/A   Mostly Cloudy
7:45 PM 53.6 °F 46.4 °F 77% 29.97 in 10.0 mi WSW 4.6 mph - N/A   Overcast
8:45 PM 53.6 °F 48.2 °F 82% 29.96 in 10.0 mi WSW 4.6 mph - N/A   Overcast
9:45 PM 51.8 °F 48.2 °F 88% 29.94 in 10.0 mi SW 8.1 mph - N/A   Overcast
9:55 PM 51.8 °F 48.2 °F 88% 29.94 in 10.0 mi SW 3.5 mph - N/A   Scattered Clouds
10:15 PM 51.8 °F 48.2 °F 88% 29.94 in 10.0 mi SW 3.5 mph - N/A   Mostly Cloudy
10:35 PM 53.6 °F 48.2 °F 82% 29.93 in 10.0 mi SSW 3.5 mph - N/A   Overcast
10:55 PM 53.6 °F 48.2 °F 82% 29.92 in 10.0 mi Calm Calm - N/A   Overcast
11:15 PM 53.6 °F 48.2 °F 82% 29.92 in 10.0 mi WSW 4.6 mph - N/A   Overcast
11:35 PM 53.6 °F 48.2 °F 82% 29.92 in 10.0 mi West 3.5 mph - N/A   Overcast
11:55 PM 53.6 °F 48.2 °F 82% 29.92 in 10.0 mi NW 8.1 mph - N/A   Overcast